Location: ???? ?????
(30.0052°N, 31.2891°E)
Time: 01:28:34
(UTC+00:00)

Daily predictions for brighter satellites

Satellite Brightness Start Highest point End
(mag) Time Altitude Azimuth Time Altitude Azimuth Time Altitude Azimuth
Cosmos 2278 Rocket 4.2 00:02:15 10° NW 00:03:35 16° NW 00:03:35 16° NW
Cosmos 292 Rocket 4.5 00:09:41 50° N 00:09:41 50° N 00:13:17 10° NNE
ADEOS II 2.3 00:03:19 10° N 00:07:44 62° NNW 00:07:44 62° NNW
IDEFIX/ARIANE 42P 2.7 00:04:21 10° NNE 00:09:04 72° NNE 00:09:04 72° NNE
SL-16 R/B 3.3 00:16:08 32° NW 00:16:08 32° NW 00:20:33 10° N
Cosmos 2369 Rocket 4.2 00:16:45 10° N 00:21:20 26° ENE 00:25:54 10° ESE
COSMOS 2455 3.1 00:21:40 52° WNW 00:21:44 52° WNW 00:27:36 10° NNE
OAO 2 Rocket 3.5 00:23:27 61° E 00:23:27 61° E 00:27:35 10° ENE
IRS-1D 3.6 00:21:40 10° NNE 00:26:59 74° ESE 00:27:26 69° SE
Cosmos 2228 3.8 00:26:07 10° N 00:30:18 47° E 00:30:48 45° ESE
Nadezhda 1 Rocket 4.1 00:30:28 57° W 00:30:52 58° W 00:37:06 10° N
Cosmos 1603 3.7 00:37:53 60° S 00:38:54 78° ESE 00:44:32 10° NNE
MOS 1 Rocket 4.5 00:44:06 26° NW 00:44:06 26° NW 00:46:17 10° NNW
COSMOS 2441 4.2 00:38:34 10° N 00:43:23 71° WNW 00:43:33 70° W
MSX 3.9 00:38:50 10° N 00:44:29 59° WNW 00:45:21 53° WSW
Cosmos 1271 Rocket 3.8 00:55:17 10° NNW 00:57:44 33° NW 00:57:44 33° NW
Cosmos 1606 Rocket 3.6 00:56:48 10° N 01:01:11 74° E 01:03:05 33° SSE
CZ-2D R/B 4.3 01:01:23 10° NW 01:02:24 11° WNW 01:02:28 11° WNW
ALOS 3.0 00:58:46 10° NNE 01:03:16 48° E 01:05:59 22° SSE
CZ-2C R/B 3.1 00:59:43 10° NNE 01:04:38 50° E 01:07:49 20° SSE
Cosmos 2341 Rocket 4.0 01:00:07 10° N 01:06:32 85° E 01:12:39 11° S
Cosmos 1943 3.6 01:08:53 37° WSW 01:10:28 46° WNW 01:15:57 10° N
Cosmos 1371 Rocket 3.9 01:08:34 37° SSW 01:10:40 90° WNW 01:15:51 10° NNE
Helios 1B rocket 2.3 01:08:08 10° N 01:12:10 67° WNW 01:12:58 52° SW
Meteor 2-1 Rocket 4.1 01:07:44 10° N 01:13:28 89° W 01:18:37 12° S
SL-8 Rocket 4.1 01:07:11 10° N 01:13:32 79° E 01:19:50 10° S
SL-16 R/B 3.8 01:14:42 22° W 01:14:42 22° W 01:18:44 10° NW
Helios 1A 4.5 01:16:52 22° WNW 01:16:52 22° WNW 01:19:05 10° NW
Cosmos 1328 4.3 01:16:43 39° W 01:16:46 39° W 01:20:30 10° N
Cosmos 407 Rocket 4.4 01:11:38 10° N 01:16:47 51° ENE 01:21:50 10° SSE
ATLAS 3B CENTAUR R/B 3.3 01:17:04 15° SSE 01:18:08 17° SE 01:21:29 10° ESE
BREEZE-M DEB (TANK) 3.3 01:17:31 35° WNW 01:18:14 42° NNW 01:23:50 10° NE
Cosmos 1140 Rocket 3.7 01:22:42 10° N 01:27:57 71° ENE 01:33:07 10° SSE
Lacrosse 4 Rocket 1.9 01:26:04 23° S 01:28:37 60° ESE 01:32:49 10° NNE
Cosmos 1892 Rocket 4.0 01:27:31 33° WSW 01:28:46 42° W 01:33:01 10° N
SeaSat 1 2.5 01:28:39 10° NNE 01:33:35 76° ESE 01:37:17 18° SSW
Meteor 1-29 2.9 01:30:45 10° NNE 01:34:00 73° E 01:35:51 23° S
IRS-1C 4.1 01:28:57 10° N 01:34:17 78° WNW 01:38:24 17° SSW
Cosmos 1943 Rocket 3.6 01:36:04 10° WNW 01:39:28 18° W 01:39:28 18° W
FENGYUN 3A 3.8 01:34:54 10° N 01:40:08 54° WNW 01:43:52 19° SW
Cosmos 2263 4.2 01:34:39 10° NNW 01:40:22 84° WSW 01:46:05 10° SSE
Cosmos 1726 Rocket 3.8 01:36:31 10° NNW 01:40:44 46° W 01:43:38 18° SSW
MOS 1-B Rocket 3.8 01:36:58 10° S 01:42:37 61° WSW 01:48:10 10° NNW
SL-24 DEB 4.5 01:40:08 17° SSW 01:43:35 49° W 01:48:10 10° NNW
Cosmos 1624 Rocket 4.5 01:41:18 22° SW 01:44:20 44° WNW 01:49:24 10° N
Cosmos 1825 2.2 01:42:44 12° S 01:46:10 77° E 01:49:53 10° N
Cosmos 1023 Rocket 4.4 01:41:00 10° NNW 01:46:14 71° WSW 01:51:25 10° S
Nadezhda 3 Rocket 4.2 01:42:37 10° S 01:48:56 74° E 01:55:12 10° N
ARIANE 5 R/B 2.5 01:46:36 10° N 01:51:34 61° WNW 01:56:02 12° SSW
SEDSat Delta rocket 4.1 01:46:59 15° W 01:52:45 87° N 01:59:24 10° E
GPS 2-04 Rocket1 3.5 01:50:27 14° WNW 01:53:08 38° N 01:56:30 10° ENE
Cosmos 2218 Rocket 4.1 01:49:02 10° NNW 01:55:06 54° W 02:01:14 10° SSW
Cosmos 2056 Rocket 4.3 01:52:53 18° WSW 01:55:59 33° WNW 02:00:42 10° N
Cosmos 1633 3.8 01:55:02 10° SSE 01:58:21 41° E 02:01:42 10° NNE
DELTA 2 DEB (DPAF) 4.0 01:56:22 10° S 02:00:46 73° WSW 02:05:11 10° NNW
Cosmos 1892 3.7 02:00:20 17° SW 02:02:24 27° W 02:05:40 10° NNW
Cosmos 1484 Rocket 2.8 01:58:38 10° NNE 02:02:31 85° ESE 02:06:27 10° S
FALCON 9 R/B 3.8 01:50:13 10° WNW 02:02:44 30° SW 02:07:31 10° S
Cosmos 2369 Rocket 2.8 02:00:23 10° NW 02:05:17 32° WSW 02:10:10 10° SSW
CZ-3 R/B 3.9 01:20:49 10° W 02:05:28 85° S 02:15:07 10° E
CZ-2C R/B 2.7 02:04:08 10° SSW 02:06:45 21° SSE 02:09:34 10° E
IKONOS-2 4.4 02:02:48 10° SSE 02:07:00 86° WSW 02:11:13 10° NNW
OAO 2 Rocket 4.0 02:02:46 10° W 02:07:34 50° N 02:12:20 10° ENE
Cosmos 1626 Rocket 4.1 02:09:51 10° SSW 02:14:00 40° W 02:18:09 10° N
Cosmos 1656 Rocket 4.2 02:09:51 10° NW 02:14:39 33° WSW 02:19:28 10° SSW
Cosmos 2058 Rocket 3.8 02:11:39 10° NNW 02:15:31 31° W 02:19:21 10° SSW
Cosmos 1821 Rocket 4.1 02:09:43 10° N 02:16:08 83° W 02:22:30 10° S
Cosmos 1408 4.5 02:14:43 11° WSW 02:16:25 14° WNW 02:18:27 10° NW
Meteor 1-27 4.2 02:12:02 10° N 02:17:46 82° W 02:23:24 10° S
Cosmos 1190 Rocket 4.1 02:13:05 10° NNW 02:18:17 59° WSW 02:23:29 10° S
CZ-4B R/B 3.8 02:17:15 10° NNE 02:22:29 78° ESE 02:27:44 10° S
Cosmos 1825 Rocket 4.4 02:18:28 10° S 02:22:48 55° E 02:27:07 10° NNE
Spot 4 Rocket 4.2 02:20:58 10° N 02:25:59 58° WNW 02:31:00 10° SSW
Cosmos 1331 Rocket 4.3 02:24:10 10° S 02:29:20 72° ESE 02:34:33 10° NNE
ATLAS 2A CENTAUR R/B 3.0 02:20:31 10° W 02:33:50 69° S 02:38:38 10° E
